This is the latest recevied weather packets stored in our database for station/object KN4AN. If no packets are shown the sender has not sent any weather packets the latest 10 day(s).
| Time | Temp. | Humidity | Pressure | Rain* | Wind** | Luminosity | Snow |
|---|---|---|---|---|---|---|---|
| 1787792676 | 22.22° C | 84% | 1016.3 hPa | 0 mm | - | 0 W/m² | - |
| 1787792373 | 22.22° C | 84% | 1016.5 hPa | 0 mm | - | 0 W/m² | - |
| 1787792072 | 22.22° C | 84% | 1016.5 hPa | 0 mm | - | 0 W/m² | - |
| 1787791771 | 22.78° C | 83% | 1016.4 hPa | 0 mm | - | 0 W/m² | - |
| 1787791466 | 22.78° C | 83% | 1016.2 hPa | 0 mm | - | 0 W/m² | - |
| 1787791161 | 22.78° C | 83% | 1016.2 hPa | 0 mm | - | 0 W/m² | - |
| 1787790857 | 22.78° C | 82% | 1016.3 hPa | 0 mm | - | 0 W/m² | - |
| 1787790552 | 22.78° C | 82% | 1016.4 hPa | 0 mm | - | 0 W/m² | - |
| 1787790248 | 22.78° C | 82% | 1016.4 hPa | 0 mm | - | 0 W/m² | - |
| 1787789943 | 23.33° C | 81% | 1016.2 hPa | 0 mm | - | 0 W/m² | - |
| 1787789642 | 23.33° C | 81% | 1016.3 hPa | 0 mm | - | 0 W/m² | - |
| 1787789343 | 23.33° C | 81% | 1016.3 hPa | 0 mm | - | 0 W/m² | - |
| 1787789037 | 23.89° C | 80% | 1016.2 hPa | 0 mm | - | 1 W/m² | - |
| 1787788735 | 23.89° C | 79% | 1016.1 hPa | 0 mm | - | 2 W/m² | - |
| 1787788430 | 23.89° C | 79% | 1015.9 hPa | 0 mm | - | 3 W/m² | - |
| 1787788125 | 24.44° C | 78% | 1015.7 hPa | 0 mm | - | 4 W/m² | - |
| 1787787825 | 24.44° C | 77% | 1016.1 hPa | 0 mm | - | 6 W/m² | - |
| 1787787524 | 25° C | 77% | 1016.1 hPa | 0 mm | - | 9 W/m² | - |
| 1787787219 | 25° C | 76% | 1015.9 hPa | 0 mm | - | 13 W/m² | - |
| 1787786918 | 25° C | 75% | 1015.7 hPa | 0 mm | - | 15 W/m² | - |
| 1787786614 | 25.56° C | 74% | 1015.7 hPa | 0 mm | - | 18 W/m² | - |
| 1787786314 | 26.11° C | 73% | 1015.7 hPa | 0 mm | - | 24 W/m² | - |
| 1787786010 | 26.11° C | 70% | 1015.9 hPa | 0 mm | - | 27 W/m² | - |
| 1787785710 | 26.67° C | 67% | 1015.8 hPa | 0 mm | - | 26 W/m² | - |
| 1787785406 | 27.22° C | 66% | 1015.9 hPa | 0 mm | - | 26 W/m² | - |
* Rain latest hour (hover to see other rain measurements)
** Current wind speed in m/s (hover to see current wind gust speed)